Observer details:
046 Klet.  Observers J. Ticha, M. Tichy.  0.57-m f/5.2 reflector + CCD.
104 San Marcello Pistoiese.  Observers L. Tesi, A. Boattini, M. Tombelli.
    Measurers A. Boattini, G. Forti, L. Tesi, M. Tombelli.  0.40-m f/5
    reflector + CCD.
118 Modra.  Observers A. Galad, J. Toth.  0.6-m f/5.5 reflector + CCD.
151 Eschenberg Observatory, Winterthur.  Observer M. Griesser.  0.25-m f/8.0
    reflector + CCD.
355 Hadano.  Observer A. Asami.  0.28-m f/5.0 reflector + CCD.
402 Dynic Astronomical Observatory.  Observer A. Sugie.  0.60-m f/3.7 reflector
    + CCD.
468 Campo Catino.  Observers F. Mallia, G. Masi, F. Rossi.  0.80-m f/4.0
    reflector + CCD.
470 Ceccano.  Observer G. Masi.  0.28-m f/3.3 reflector + CCD.
557 Ondrejov.  Observer P. Pravec.  0.65-m f/3.6 reflector + CCD.
587 Sormano.  Observers P. Sicoli, V. Giuliani.  0.5-m reflector + CCD.
596 Colleverde di Guidonia.  Observer V. S. Casulli.  0.40-m f/2.95 reflector
    + CCD.
620 Observatorio Astronomico de Mallorca.  Observers A. Lopez, R. Pacheco.
    0.30-m f/3.3 Schmidt-Cassegrain + CCD.
670 Camarillo.  Observer J. E. Rogers.  0.30-m f/6.7 Helin Telescope + CCD.
704 Lincoln Laboratory ETS, New Mexico.  Observers M. Blythe, F. Shelly,
    M. Bezpalko, M. Elowitz.  Measurers J. Stuart, H. Viggh, R. Sayer.  1.0-m
    f/2.15 reflector + CCD.
713 Thornton.  Observer R. A. Koff.  0.20-m f/10 Schmidt-Cassegrain + CCD.
719 Etscorn Observatory.  Observer D. A. Klinglesmith III.  0.355-m
    Schmidt-Cassegrain + CCD.
750 Hobbs Observatory, Fall Creek.  Observer R. Elliott.  0.3-m f/3.3 reflector
    + CCD.
850 Cordell-Lorenz Observatory, Sewanee.  Observer D. T. Durig.  0.3-m
    f/5.75 Schmidt-Cassegrain + CCD.
946 Ametlla de Mar.  Observer J. Nomen.  0.30-m f/5.0 reflector + CCD.

Orbital elements:
1999 SM5                                                             PHA 0.048
Epoch 1999 Sept. 19.0 TT = JDT 2451440.5                Williams
M  11.31483              (2000.0)            P               Q
n   0.27969810     Peri.  318.56312     +0.29155545     +0.95537996
a   2.3156684      Node   328.30316     -0.85217522     +0.23692460
e   0.6950588      Incl.    5.17328     -0.43450295     +0.17639688
P   3.52           H   19.2           G   0.15
From 98 observations 1999 Sept. 28-Oct. 2.

Ephemeris:
1999 SM5                 a,e,i = 2.32, 0.70, 5                   q = 0.7061
Date    TT    R. A. (2000) Decl.     Delta      r     Elong.  Phase     V
1999 09 29    00 34.01   +47 13.6    0.096    1.072   134.8    41.5    15.9
1999 10 04    00 26.44   +34 51.8    0.143    1.126   149.1    27.1    16.5
1999 10 09    00 23.69   +28 29.4    0.195    1.180   156.2    19.9    17.0
1999 10 14    00 22.69   +24 35.8    0.250    1.235   159.2    16.7    17.5
1999 10 19    00 22.75   +21 57.5    0.309    1.289   159.1    16.0    18.1
1999 10 24    00 23.60   +20 03.5    0.370    1.344   157.1    16.8    18.6
1999 10 29    00 25.09   +18 38.2    0.435    1.397   153.9    18.2    19.1
1999 11 03    00 27.16   +17 33.4    0.503    1.450   150.2    19.9    19.5
1999 11 08    00 29.76   +16 43.9    0.575    1.503   146.3    21.5    19.9
1999 11 13    00 32.85   +16 06.8    0.649    1.555   142.2    22.9    20.3
1999 11 18    00 36.40   +15 39.7    0.728    1.606   138.2    24.2    20.7
1999 11 23    00 40.36   +15 21.0    0.809    1.657   134.2    25.3    21.0
1999 11 28    00 44.68   +15 09.3    0.894    1.706   130.2    26.2    21.3
1999 12 03    00 49.31   +15 03.6    0.981    1.755   126.3    26.9    21.6
1999 12 08    00 54.25   +15 03.1    1.071    1.803   122.5    27.4    21.9

Gareth V. Williams           (C) Copyright 1999 MPC           M.P.E.C. 1999-T06

Read MPEC 1999-T05 Read MPEC 1999-T07


Our Web policy. Index to the CBAT/MPC/ICQ pages.

